Year,Month,Day,Hour,Minute,Value (Times are PST for temperature in C)
2017,05,27,00,00,16.60
2017,05,27,00,01,16.60
2017,05,27,00,02,16.60
2017,05,27,00,03,16.60
2017,05,27,00,04,16.60
2017,05,27,00,05,16.60
2017,05,27,00,06,16.50
2017,05,27,00,07,16.50
2017,05,27,00,08,16.50
2017,05,27,00,09,16.60
2017,05,27,00,10,16.60
2017,05,27,00,11,16.60
2017,05,27,00,12,16.60
2017,05,27,00,13,16.60
2017,05,27,00,14,16.70
2017,05,27,00,15,16.70
2017,05,27,00,16,16.70
2017,05,27,00,17,16.70
2017,05,27,00,18,16.70
2017,05,27,00,19,16.80
2017,05,27,00,20,16.80
2017,05,27,00,21,16.80
2017,05,27,00,22,16.80
2017,05,27,00,23,16.80
2017,05,27,00,24,16.80
2017,05,27,00,25,16.80
2017,05,27,00,26,16.80
2017,05,27,00,27,16.80
2017,05,27,00,28,16.80
2017,05,27,00,29,16.80
2017,05,27,00,30,16.80
2017,05,27,00,31,16.80
2017,05,27,00,32,16.80
2017,05,27,00,33,16.80
2017,05,27,00,34,16.80
2017,05,27,00,35,16.80
2017,05,27,00,36,16.80
2017,05,27,00,37,16.70
2017,05,27,00,38,16.70
2017,05,27,00,39,16.60
2017,05,27,00,40,16.50
2017,05,27,00,41,16.40
2017,05,27,00,42,16.30
2017,05,27,00,43,16.20
2017,05,27,00,44,16.20
2017,05,27,00,45,16.10
2017,05,27,00,46,16.10
2017,05,27,00,47,16.10
2017,05,27,00,48,16.00
2017,05,27,00,49,16.00
2017,05,27,00,50,15.90
2017,05,27,00,51,15.90
2017,05,27,00,52,15.90
2017,05,27,00,53,15.80
2017,05,27,00,54,15.80
2017,05,27,00,55,15.80
2017,05,27,00,56,15.80
2017,05,27,00,57,15.80
2017,05,27,00,58,15.80
2017,05,27,00,59,15.70
2017,05,27,01,00,15.70
2017,05,27,01,01,15.70
2017,05,27,01,02,15.60
2017,05,27,01,03,15.60
2017,05,27,01,04,15.60
2017,05,27,01,05,15.60
2017,05,27,01,06,15.50
2017,05,27,01,07,15.50
2017,05,27,01,08,15.40
2017,05,27,01,09,15.40
2017,05,27,01,10,15.30
2017,05,27,01,11,15.30
2017,05,27,01,12,15.20
2017,05,27,01,13,15.10
2017,05,27,01,14,15.10
2017,05,27,01,15,15.10
2017,05,27,01,16,15.00
2017,05,27,01,17,14.90
2017,05,27,01,18,14.90
2017,05,27,01,19,14.90
2017,05,27,01,20,15.00
2017,05,27,01,21,15.00
2017,05,27,01,22,15.10
2017,05,27,01,23,15.30
2017,05,27,01,24,15.40
2017,05,27,01,25,15.60
2017,05,27,01,26,15.70
2017,05,27,01,27,15.80
2017,05,27,01,28,15.90
2017,05,27,01,29,15.90
2017,05,27,01,30,16.00
2017,05,27,01,31,16.00
2017,05,27,01,32,16.00
2017,05,27,01,33,15.90
2017,05,27,01,34,15.90
2017,05,27,01,35,15.90
2017,05,27,01,36,15.80
2017,05,27,01,37,15.70
2017,05,27,01,38,15.60
2017,05,27,01,39,15.50
2017,05,27,01,40,15.40
2017,05,27,01,41,15.40
2017,05,27,01,42,15.30
2017,05,27,01,43,15.20
2017,05,27,01,44,15.10
2017,05,27,01,45,15.10
2017,05,27,01,46,15.00
2017,05,27,01,47,15.00
2017,05,27,01,48,14.90
2017,05,27,01,49,14.80
2017,05,27,01,50,14.80
2017,05,27,01,51,14.70
2017,05,27,01,52,14.70
2017,05,27,01,53,14.60
2017,05,27,01,54,14.50
2017,05,27,01,55,14.50
2017,05,27,01,56,14.40
2017,05,27,01,57,14.30
2017,05,27,01,58,14.30
2017,05,27,01,59,14.20
2017,05,27,02,00,14.10
2017,05,27,02,01,14.10
2017,05,27,02,02,14.00
2017,05,27,02,03,14.00
2017,05,27,02,04,13.90
2017,05,27,02,05,13.90
2017,05,27,02,06,13.80
2017,05,27,02,07,13.80
2017,05,27,02,08,13.80
2017,05,27,02,09,13.70
2017,05,27,02,10,13.70
2017,05,27,02,11,13.70
2017,05,27,02,12,13.70
2017,05,27,02,13,13.60
2017,05,27,02,14,13.60
2017,05,27,02,15,13.60
2017,05,27,02,16,13.50
2017,05,27,02,17,13.50
2017,05,27,02,18,13.50
2017,05,27,02,19,13.40
2017,05,27,02,20,13.40
2017,05,27,02,21,13.40
2017,05,27,02,22,13.40
2017,05,27,02,23,13.40
2017,05,27,02,24,13.40
2017,05,27,02,25,13.30
2017,05,27,02,26,13.30
2017,05,27,02,27,13.30
2017,05,27,02,28,13.30
2017,05,27,02,29,13.30
2017,05,27,02,30,13.20
2017,05,27,02,31,13.20
2017,05,27,02,32,13.20
2017,05,27,02,33,13.20
2017,05,27,02,34,13.10
2017,05,27,02,35,13.10
2017,05,27,02,36,13.10
2017,05,27,02,37,13.00
2017,05,27,02,38,13.00
2017,05,27,02,39,12.90
2017,05,27,02,40,12.90
2017,05,27,02,41,12.90
2017,05,27,02,42,12.80
2017,05,27,02,43,12.80
2017,05,27,02,44,12.80
2017,05,27,02,45,12.80
2017,05,27,02,46,12.80
2017,05,27,02,47,12.80
2017,05,27,02,48,12.80
2017,05,27,02,49,12.80
2017,05,27,02,50,12.80
2017,05,27,02,51,12.70
2017,05,27,02,52,12.70
2017,05,27,02,53,12.70
2017,05,27,02,54,12.70
2017,05,27,02,55,12.70
2017,05,27,02,56,12.70
2017,05,27,02,57,12.60
2017,05,27,02,58,12.60
2017,05,27,02,59,12.60
2017,05,27,03,00,12.60
2017,05,27,03,01,12.60
2017,05,27,03,02,12.60
2017,05,27,03,03,12.50
2017,05,27,03,04,12.50
2017,05,27,03,05,12.50
2017,05,27,03,06,12.50
2017,05,27,03,07,12.40
2017,05,27,03,08,12.40
2017,05,27,03,09,12.40
2017,05,27,03,10,12.40
2017,05,27,03,11,12.40
2017,05,27,03,12,12.40
2017,05,27,03,13,12.40
2017,05,27,03,14,12.40
2017,05,27,03,15,12.40
2017,05,27,03,16,12.40
2017,05,27,03,17,12.40
2017,05,27,03,18,12.50
2017,05,27,03,19,12.40
2017,05,27,03,20,12.40
2017,05,27,03,21,12.40
2017,05,27,03,22,12.40
2017,05,27,03,23,12.30
2017,05,27,03,24,12.30
2017,05,27,03,25,12.30
2017,05,27,03,26,12.30
2017,05,27,03,27,12.20
2017,05,27,03,28,12.20
2017,05,27,03,29,12.20
2017,05,27,03,30,12.20
2017,05,27,03,31,12.10
2017,05,27,03,32,12.10
2017,05,27,03,33,12.10
2017,05,27,03,34,12.10
2017,05,27,03,35,12.10
2017,05,27,03,36,12.10
2017,05,27,03,37,12.10
2017,05,27,03,38,12.10
2017,05,27,03,39,12.20
2017,05,27,03,40,12.30
2017,05,27,03,41,12.30
2017,05,27,03,42,12.40
2017,05,27,03,43,12.40
2017,05,27,03,44,12.40
2017,05,27,03,45,12.40
2017,05,27,03,46,12.40
2017,05,27,03,47,12.30
2017,05,27,03,48,12.30
2017,05,27,03,49,12.20
2017,05,27,03,50,12.20
2017,05,27,03,51,12.10
2017,05,27,03,52,12.10
2017,05,27,03,53,12.10
2017,05,27,03,54,12.00
2017,05,27,03,55,12.00
2017,05,27,03,56,11.90
2017,05,27,03,57,11.90
2017,05,27,03,58,11.90
2017,05,27,03,59,11.80
2017,05,27,04,00,11.80
2017,05,27,04,01,11.80
2017,05,27,04,02,11.80
2017,05,27,04,03,11.80
2017,05,27,04,04,11.80
2017,05,27,04,05,11.80
2017,05,27,04,06,11.90
2017,05,27,04,07,11.90
2017,05,27,04,08,11.90
2017,05,27,04,09,11.90
2017,05,27,04,10,11.90
2017,05,27,04,11,11.90
2017,05,27,04,12,11.90
2017,05,27,04,13,11.90
2017,05,27,04,14,11.90
2017,05,27,04,15,11.90
2017,05,27,04,16,11.80
2017,05,27,04,17,11.80
2017,05,27,04,18,11.70
2017,05,27,04,19,11.60
2017,05,27,04,20,11.60
2017,05,27,04,21,11.50
2017,05,27,04,22,11.40
2017,05,27,04,23,11.40
2017,05,27,04,24,11.30
2017,05,27,04,25,11.30
2017,05,27,04,26,11.30
2017,05,27,04,27,11.30
2017,05,27,04,28,11.30
2017,05,27,04,29,11.30
2017,05,27,04,30,11.40
2017,05,27,04,31,11.40
2017,05,27,04,32,11.40
2017,05,27,04,33,11.40
2017,05,27,04,34,11.40
2017,05,27,04,35,11.40
2017,05,27,04,36,11.40
2017,05,27,04,37,11.30
2017,05,27,04,38,11.30
2017,05,27,04,39,11.30
2017,05,27,04,40,11.30
2017,05,27,04,41,11.20
2017,05,27,04,42,11.20
2017,05,27,04,43,11.20
2017,05,27,04,44,11.20
2017,05,27,04,45,11.20
2017,05,27,04,46,11.20
2017,05,27,04,47,11.20
2017,05,27,04,48,11.10
2017,05,27,04,49,11.10
2017,05,27,04,50,11.10
2017,05,27,04,51,11.10
2017,05,27,04,52,11.10
2017,05,27,04,53,11.00
2017,05,27,04,54,11.00
2017,05,27,04,55,11.00
2017,05,27,04,56,10.90
2017,05,27,04,57,10.90
2017,05,27,04,58,10.90
2017,05,27,04,59,10.80
2017,05,27,05,00,10.80
2017,05,27,05,01,10.80
2017,05,27,05,02,10.80
2017,05,27,05,03,10.70
2017,05,27,05,04,10.70
2017,05,27,05,05,10.70
2017,05,27,05,06,10.70
2017,05,27,05,07,10.70
2017,05,27,05,08,10.60
2017,05,27,05,09,10.60
2017,05,27,05,10,10.60
2017,05,27,05,11,10.60
2017,05,27,05,12,10.60
2017,05,27,05,13,10.50
2017,05,27,05,14,10.50
2017,05,27,05,15,10.50
2017,05,27,05,16,10.50
2017,05,27,05,17,10.50
2017,05,27,05,18,10.50
2017,05,27,05,19,10.50
2017,05,27,05,20,10.50
2017,05,27,05,21,10.50
2017,05,27,05,22,10.50
2017,05,27,05,23,10.50
2017,05,27,05,24,10.50
2017,05,27,05,25,10.40
2017,05,27,05,26,10.40
2017,05,27,05,27,10.40
2017,05,27,05,28,10.40
2017,05,27,05,29,10.40
2017,05,27,05,30,10.40
2017,05,27,05,31,10.40
2017,05,27,05,32,10.40
2017,05,27,05,33,10.40
2017,05,27,05,34,10.40
2017,05,27,05,35,10.30
2017,05,27,05,36,10.30
2017,05,27,05,37,10.30
2017,05,27,05,38,10.30
2017,05,27,05,39,10.30
2017,05,27,05,40,10.30
2017,05,27,05,41,10.30
2017,05,27,05,42,10.30
2017,05,27,05,43,10.30
2017,05,27,05,44,10.30
2017,05,27,05,45,10.30
2017,05,27,05,46,10.30
2017,05,27,05,47,10.20
2017,05,27,05,48,10.20
2017,05,27,05,49,10.20
2017,05,27,05,50,10.20
2017,05,27,05,51,10.20
2017,05,27,05,52,10.20
2017,05,27,05,53,10.20
2017,05,27,05,54,10.20
2017,05,27,05,55,10.20
2017,05,27,05,56,10.20
2017,05,27,05,57,10.30
2017,05,27,05,58,10.30
2017,05,27,05,59,10.30
2017,05,27,06,00,10.30
2017,05,27,06,01,10.30
2017,05,27,06,02,10.30
2017,05,27,06,03,10.30
2017,05,27,06,04,10.30
2017,05,27,06,05,10.30
2017,05,27,06,06,10.30
2017,05,27,06,07,10.40
2017,05,27,06,08,10.40
2017,05,27,06,09,10.40
2017,05,27,06,10,10.40
2017,05,27,06,11,10.40
2017,05,27,06,12,10.40
2017,05,27,06,13,10.40
2017,05,27,06,14,10.40
2017,05,27,06,15,10.40
2017,05,27,06,16,10.40
2017,05,27,06,17,10.40
2017,05,27,06,18,10.40
2017,05,27,06,19,10.40
2017,05,27,06,20,10.40
2017,05,27,06,21,10.40
2017,05,27,06,22,10.40
2017,05,27,06,23,10.40
2017,05,27,06,24,10.40
2017,05,27,06,25,10.40
2017,05,27,06,26,10.40
2017,05,27,06,27,10.50
2017,05,27,06,28,10.50
2017,05,27,06,29,10.50
2017,05,27,06,30,10.50
2017,05,27,06,31,10.50
2017,05,27,06,32,10.60
2017,05,27,06,33,10.60
2017,05,27,06,34,10.70
2017,05,27,06,35,10.70
2017,05,27,06,36,10.80
2017,05,27,06,37,10.90
2017,05,27,06,38,10.90
2017,05,27,06,39,10.90
2017,05,27,06,40,11.00
2017,05,27,06,41,11.00
2017,05,27,06,42,11.00
2017,05,27,06,43,11.10
2017,05,27,06,44,11.10
2017,05,27,06,45,11.10
2017,05,27,06,46,11.10
2017,05,27,06,47,11.10
2017,05,27,06,48,11.20
2017,05,27,06,49,11.20
2017,05,27,06,50,11.20
2017,05,27,06,51,11.20
2017,05,27,06,52,11.30
2017,05,27,06,53,11.30
2017,05,27,06,54,11.30
2017,05,27,06,55,11.40
2017,05,27,06,56,11.40
2017,05,27,06,57,11.40
2017,05,27,06,58,11.50
2017,05,27,06,59,11.50
2017,05,27,07,00,11.60
2017,05,27,07,01,11.60
2017,05,27,07,02,11.70
2017,05,27,07,03,11.70
2017,05,27,07,04,11.80
2017,05,27,07,05,11.80
2017,05,27,07,06,11.90
2017,05,27,07,07,12.00
2017,05,27,07,08,12.00
2017,05,27,07,09,12.10
2017,05,27,07,10,12.10
2017,05,27,07,11,12.20
2017,05,27,07,12,12.20
2017,05,27,07,13,12.30
2017,05,27,07,14,12.30
2017,05,27,07,15,12.40
2017,05,27,07,16,12.50
2017,05,27,07,17,12.60
2017,05,27,07,18,12.70
2017,05,27,07,19,12.80
2017,05,27,07,20,12.90
2017,05,27,07,21,13.00
2017,05,27,07,22,13.10
2017,05,27,07,23,13.20
2017,05,27,07,24,13.30
2017,05,27,07,25,13.30
2017,05,27,07,26,13.30
2017,05,27,07,27,13.40
2017,05,27,07,28,13.40
2017,05,27,07,29,13.50
2017,05,27,07,30,13.50
2017,05,27,07,31,13.60
2017,05,27,07,32,13.70
2017,05,27,07,33,13.80
2017,05,27,07,34,13.80
2017,05,27,07,35,13.90
2017,05,27,07,36,14.00
2017,05,27,07,37,14.00
2017,05,27,07,38,14.10
2017,05,27,07,39,14.20
2017,05,27,07,40,14.30
2017,05,27,07,41,14.50
2017,05,27,07,42,14.70
2017,05,27,07,43,14.80
2017,05,27,07,44,15.00
2017,05,27,07,45,15.10
2017,05,27,07,46,15.30
2017,05,27,07,47,15.40
2017,05,27,07,48,15.50
2017,05,27,07,49,15.70
2017,05,27,07,50,15.80
2017,05,27,07,51,15.90
2017,05,27,07,52,16.10
2017,05,27,07,53,16.20
2017,05,27,07,54,16.20
2017,05,27,07,55,16.30
2017,05,27,07,56,16.30
2017,05,27,07,57,16.30
2017,05,27,07,58,16.30
2017,05,27,07,59,16.30
2017,05,27,08,00,16.30
2017,05,27,08,01,16.30
2017,05,27,08,02,16.40
2017,05,27,08,03,16.50
2017,05,27,08,04,16.50
2017,05,27,08,05,16.60
2017,05,27,08,06,16.70
2017,05,27,08,07,16.80
2017,05,27,08,08,16.80
2017,05,27,08,09,16.90
2017,05,27,08,10,16.90
2017,05,27,08,11,17.00
2017,05,27,08,12,17.00
2017,05,27,08,13,17.10
2017,05,27,08,14,17.20
2017,05,27,08,15,17.30
2017,05,27,08,16,17.40
2017,05,27,08,17,17.50
2017,05,27,08,18,17.50
2017,05,27,08,19,17.60
2017,05,27,08,20,17.70
2017,05,27,08,21,17.80
2017,05,27,08,22,17.80
2017,05,27,08,23,17.90
2017,05,27,08,24,17.90
2017,05,27,08,25,18.00
2017,05,27,08,26,18.10
2017,05,27,08,27,18.10
2017,05,27,08,28,18.20
2017,05,27,08,29,18.20
2017,05,27,08,30,18.30
2017,05,27,08,31,18.40
2017,05,27,08,32,18.40
2017,05,27,08,33,18.50
2017,05,27,08,34,18.50
2017,05,27,08,35,18.60
2017,05,27,08,36,18.60
2017,05,27,08,37,18.70
2017,05,27,08,38,18.80
2017,05,27,08,39,18.90
2017,05,27,08,40,19.00
2017,05,27,08,41,19.10
2017,05,27,08,42,19.20
2017,05,27,08,43,19.30
2017,05,27,08,44,19.40
2017,05,27,08,45,19.60
2017,05,27,08,46,19.70
2017,05,27,08,47,19.70
2017,05,27,08,48,19.80
2017,05,27,08,49,19.80
2017,05,27,08,50,19.90
2017,05,27,08,51,20.00
2017,05,27,08,52,20.10
2017,05,27,08,53,20.10
2017,05,27,08,54,20.10
2017,05,27,08,55,20.10
2017,05,27,08,56,20.20
2017,05,27,08,57,20.20
2017,05,27,08,58,20.10
2017,05,27,08,59,20.20
2017,05,27,09,00,20.20
2017,05,27,09,01,20.10
2017,05,27,09,02,20.10
2017,05,27,09,03,20.20
2017,05,27,09,04,20.10
2017,05,27,09,05,20.10
2017,05,27,09,06,20.10
2017,05,27,09,07,20.10
2017,05,27,09,08,20.10
2017,05,27,09,09,20.20
2017,05,27,09,10,20.30
2017,05,27,09,11,20.30
2017,05,27,09,12,20.30
2017,05,27,09,13,20.20
2017,05,27,09,14,20.20
2017,05,27,09,15,20.20
2017,05,27,09,16,20.20
2017,05,27,09,17,20.30
2017,05,27,09,18,20.30
2017,05,27,09,19,20.30
2017,05,27,09,20,20.40
2017,05,27,09,21,20.40
2017,05,27,09,22,20.40
2017,05,27,09,23,20.50
2017,05,27,09,24,20.60
2017,05,27,09,25,20.60
2017,05,27,09,26,20.70
2017,05,27,09,27,20.70
2017,05,27,09,28,20.80
2017,05,27,09,29,20.90
2017,05,27,09,30,20.90
2017,05,27,09,31,21.00
2017,05,27,09,32,21.10
2017,05,27,09,33,21.10
2017,05,27,09,34,21.10
2017,05,27,09,35,21.20
2017,05,27,09,36,21.10
2017,05,27,09,37,21.00
2017,05,27,09,38,21.00
2017,05,27,09,39,21.00
2017,05,27,09,40,21.00
2017,05,27,09,41,20.90
2017,05,27,09,42,20.80
2017,05,27,09,43,20.80
2017,05,27,09,44,20.80
2017,05,27,09,45,20.80
2017,05,27,09,46,20.80
2017,05,27,09,47,20.80
2017,05,27,09,48,20.80
2017,05,27,09,49,20.80
2017,05,27,09,50,20.80
2017,05,27,09,51,20.90
2017,05,27,09,52,21.00
2017,05,27,09,53,21.00
2017,05,27,09,54,21.10
2017,05,27,09,55,21.10
2017,05,27,09,56,20.90
2017,05,27,09,57,20.80
2017,05,27,09,58,20.70
2017,05,27,09,59,20.60
2017,05,27,10,00,20.50
2017,05,27,10,01,20.40
2017,05,27,10,02,20.30
2017,05,27,10,03,20.30
2017,05,27,10,04,20.30
2017,05,27,10,05,20.40
2017,05,27,10,06,20.50
2017,05,27,10,07,20.60
2017,05,27,10,08,20.70
2017,05,27,10,09,20.70
2017,05,27,10,10,20.80
2017,05,27,10,11,20.90
2017,05,27,10,12,20.90
2017,05,27,10,13,21.00
2017,05,27,10,14,21.10
2017,05,27,10,15,21.10
2017,05,27,10,16,21.00
2017,05,27,10,17,21.00
2017,05,27,10,18,20.90
2017,05,27,10,19,21.00
2017,05,27,10,20,21.20
2017,05,27,10,21,21.20
2017,05,27,10,22,21.30
2017,05,27,10,23,21.20
2017,05,27,10,24,21.10
2017,05,27,10,25,21.10
2017,05,27,10,26,21.00
2017,05,27,10,27,20.80
2017,05,27,10,28,20.80
2017,05,27,10,29,20.80
2017,05,27,10,30,20.80
2017,05,27,10,31,20.80
2017,05,27,10,32,20.90
2017,05,27,10,33,21.00
2017,05,27,10,34,21.10
2017,05,27,10,35,21.20
2017,05,27,10,36,21.20
2017,05,27,10,37,21.20
2017,05,27,10,38,21.20
2017,05,27,10,39,21.10
2017,05,27,10,40,21.10
2017,05,27,10,41,21.20
2017,05,27,10,42,21.20
2017,05,27,10,43,21.30
2017,05,27,10,44,21.30
2017,05,27,10,45,21.20
2017,05,27,10,46,21.10
2017,05,27,10,47,21.10
2017,05,27,10,48,21.10
2017,05,27,10,49,21.10
2017,05,27,10,50,21.00
2017,05,27,10,51,21.10
2017,05,27,10,52,21.00
2017,05,27,10,53,21.00
2017,05,27,10,54,21.00
2017,05,27,10,55,21.10
2017,05,27,10,56,21.20
2017,05,27,10,57,21.30
2017,05,27,10,58,21.20
2017,05,27,10,59,21.20
2017,05,27,11,00,21.10
2017,05,27,11,01,21.00
2017,05,27,11,02,21.00
2017,05,27,11,03,21.00
2017,05,27,11,04,21.10
2017,05,27,11,05,21.10
2017,05,27,11,06,21.10
2017,05,27,11,07,21.30
2017,05,27,11,08,21.40
2017,05,27,11,09,21.60
2017,05,27,11,10,21.70
2017,05,27,11,11,21.60
2017,05,27,11,12,21.50
2017,05,27,11,13,21.50
2017,05,27,11,14,21.60
2017,05,27,11,15,21.60
2017,05,27,11,16,21.70
2017,05,27,11,17,21.70
2017,05,27,11,18,21.70
2017,05,27,11,19,21.70
2017,05,27,11,20,21.80
2017,05,27,11,21,21.80
2017,05,27,11,22,21.90
2017,05,27,11,23,21.80
2017,05,27,11,24,21.90
2017,05,27,11,25,21.90
2017,05,27,11,26,22.00
2017,05,27,11,27,22.10
2017,05,27,11,28,22.20
2017,05,27,11,29,22.20
2017,05,27,11,30,22.20
2017,05,27,11,31,22.10
2017,05,27,11,32,22.10
2017,05,27,11,33,22.00
2017,05,27,11,34,22.00
2017,05,27,11,35,21.90
2017,05,27,11,36,21.80
2017,05,27,11,37,21.80
2017,05,27,11,38,21.80
2017,05,27,11,39,21.80
2017,05,27,11,40,21.90
2017,05,27,11,41,22.10
2017,05,27,11,42,22.20
2017,05,27,11,43,22.20
2017,05,27,11,44,22.20
2017,05,27,11,45,22.30
2017,05,27,11,46,22.30
2017,05,27,11,47,22.20
2017,05,27,11,48,22.20
2017,05,27,11,49,22.20
2017,05,27,11,50,22.10
2017,05,27,11,51,22.10
2017,05,27,11,52,22.10
2017,05,27,11,53,22.20
2017,05,27,11,54,22.30
2017,05,27,11,55,22.30
2017,05,27,11,56,22.30
2017,05,27,11,57,22.40
2017,05,27,11,58,22.50
2017,05,27,11,59,22.50
2017,05,27,12,00,22.50
2017,05,27,12,01,22.50
2017,05,27,12,02,22.40
2017,05,27,12,03,22.40
2017,05,27,12,04,22.30
2017,05,27,12,05,22.40
2017,05,27,12,06,22.30
2017,05,27,12,07,22.20
2017,05,27,12,08,22.30
2017,05,27,12,09,22.40
2017,05,27,12,10,22.40
2017,05,27,12,11,22.40
2017,05,27,12,12,22.40
2017,05,27,12,13,22.50
2017,05,27,12,14,22.60
2017,05,27,12,15,22.70
2017,05,27,12,16,22.70
2017,05,27,12,17,22.70
2017,05,27,12,18,22.70
2017,05,27,12,19,22.60
2017,05,27,12,20,22.60
2017,05,27,12,21,22.60
2017,05,27,12,22,22.60
2017,05,27,12,23,22.80
2017,05,27,12,24,22.90
2017,05,27,12,25,22.90
2017,05,27,12,26,22.90
2017,05,27,12,27,22.90
2017,05,27,12,28,23.00
2017,05,27,12,29,23.10
2017,05,27,12,30,23.10
2017,05,27,12,31,23.00
2017,05,27,12,32,23.00
2017,05,27,12,33,22.90
2017,05,27,12,34,22.90
2017,05,27,12,35,22.90
2017,05,27,12,36,22.90
2017,05,27,12,37,22.90
2017,05,27,12,38,23.00
2017,05,27,12,39,23.10
2017,05,27,12,40,23.10
2017,05,27,12,41,23.00
2017,05,27,12,42,23.00
2017,05,27,12,43,23.00
2017,05,27,12,44,22.90
2017,05,27,12,45,22.90
2017,05,27,12,46,22.90
2017,05,27,12,47,23.00
2017,05,27,12,48,23.10
2017,05,27,12,49,23.20
2017,05,27,12,50,23.40
2017,05,27,12,51,23.40
2017,05,27,12,52,23.50
2017,05,27,12,53,23.60
2017,05,27,12,54,23.70
2017,05,27,12,55,23.70
2017,05,27,12,56,23.70
2017,05,27,12,57,23.70
2017,05,27,12,58,23.70
2017,05,27,12,59,23.70
2017,05,27,13,00,23.70
2017,05,27,13,01,23.60
2017,05,27,13,02,23.60
2017,05,27,13,03,23.50
2017,05,27,13,04,23.40
2017,05,27,13,05,23.30
2017,05,27,13,06,23.10
2017,05,27,13,07,23.00
2017,05,27,13,08,23.00
2017,05,27,13,09,23.10
2017,05,27,13,10,23.20
2017,05,27,13,11,23.30
2017,05,27,13,12,23.40
2017,05,27,13,13,23.40
2017,05,27,13,14,23.60
2017,05,27,13,15,23.70
2017,05,27,13,16,23.70
2017,05,27,13,17,23.80
2017,05,27,13,18,23.80
2017,05,27,13,19,23.90
2017,05,27,13,20,24.10
2017,05,27,13,21,24.10
2017,05,27,13,22,24.10
2017,05,27,13,23,24.10
2017,05,27,13,24,23.90
2017,05,27,13,25,23.90
2017,05,27,13,26,23.80
2017,05,27,13,27,23.70
2017,05,27,13,28,23.70
2017,05,27,13,29,23.70
2017,05,27,13,30,23.70
2017,05,27,13,31,23.60
2017,05,27,13,32,23.60
2017,05,27,13,33,23.60
2017,05,27,13,34,23.70
2017,05,27,13,35,23.70
2017,05,27,13,36,23.70
2017,05,27,13,37,23.80
2017,05,27,13,38,23.90
2017,05,27,13,39,23.90
2017,05,27,13,40,23.80
2017,05,27,13,41,23.90
2017,05,27,13,42,23.90
2017,05,27,13,43,24.10
2017,05,27,13,44,24.10
2017,05,27,13,45,24.10
2017,05,27,13,46,24.10
2017,05,27,13,47,24.00
2017,05,27,13,48,23.90
2017,05,27,13,49,23.70
2017,05,27,13,50,23.50
2017,05,27,13,51,23.40
2017,05,27,13,52,23.40
2017,05,27,13,53,23.40
2017,05,27,13,54,23.50
2017,05,27,13,55,23.70
2017,05,27,13,56,23.90
2017,05,27,13,57,24.00
2017,05,27,13,58,24.10
2017,05,27,13,59,24.20
2017,05,27,14,00,24.20
2017,05,27,14,01,24.10
2017,05,27,14,02,24.00
2017,05,27,14,03,24.00
2017,05,27,14,04,23.80
2017,05,27,14,05,23.80
2017,05,27,14,06,23.80
2017,05,27,14,07,23.90
2017,05,27,14,08,24.00
2017,05,27,14,09,24.00
2017,05,27,14,10,24.00
2017,05,27,14,11,23.90
2017,05,27,14,12,23.90
2017,05,27,14,13,23.90
2017,05,27,14,14,23.90
2017,05,27,14,15,23.90
2017,05,27,14,16,23.90
2017,05,27,14,17,23.80
2017,05,27,14,18,23.80
2017,05,27,14,19,23.80
2017,05,27,14,20,23.80
2017,05,27,14,21,23.90
2017,05,27,14,22,23.90
2017,05,27,14,23,23.90
2017,05,27,14,24,23.90
2017,05,27,14,25,23.90
2017,05,27,14,26,24.00
2017,05,27,14,27,24.10
2017,05,27,14,28,24.20
2017,05,27,14,29,24.30
2017,05,27,14,30,24.40
2017,05,27,14,31,24.60
2017,05,27,14,32,24.50
2017,05,27,14,33,24.40
2017,05,27,14,34,24.40
2017,05,27,14,35,24.40
2017,05,27,14,36,24.50
2017,05,27,14,37,24.60
2017,05,27,14,38,24.80
2017,05,27,14,39,24.90
2017,05,27,14,40,25.10
2017,05,27,14,41,25.20
2017,05,27,14,42,25.30
2017,05,27,14,43,25.40
2017,05,27,14,44,25.40
2017,05,27,14,45,25.50
2017,05,27,14,46,25.40
2017,05,27,14,47,25.30
2017,05,27,14,48,25.30
2017,05,27,14,49,25.40
2017,05,27,14,50,25.60
2017,05,27,14,51,25.70
2017,05,27,14,52,25.90
2017,05,27,14,53,26.00
2017,05,27,14,54,26.00
2017,05,27,14,55,25.80
2017,05,27,14,56,25.80
2017,05,27,14,57,25.90
2017,05,27,14,58,25.80
2017,05,27,14,59,25.70
2017,05,27,15,00,25.60
2017,05,27,15,01,25.60
2017,05,27,15,02,25.60
2017,05,27,15,03,25.60
2017,05,27,15,04,25.50
2017,05,27,15,05,25.30
2017,05,27,15,06,25.20
2017,05,27,15,07,25.10
2017,05,27,15,08,25.10
2017,05,27,15,09,25.10
2017,05,27,15,10,25.20
2017,05,27,15,11,25.20
2017,05,27,15,12,25.20
2017,05,27,15,13,25.10
2017,05,27,15,14,25.00
2017,05,27,15,15,25.10
2017,05,27,15,16,25.20
2017,05,27,15,17,25.30
2017,05,27,15,18,25.40
2017,05,27,15,19,25.40
2017,05,27,15,20,25.30
2017,05,27,15,21,25.30
2017,05,27,15,22,25.20
2017,05,27,15,23,25.30
2017,05,27,15,24,25.20
2017,05,27,15,25,25.30
2017,05,27,15,26,25.20
2017,05,27,15,27,25.20
2017,05,27,15,28,25.10
2017,05,27,15,29,25.10
2017,05,27,15,30,25.10
2017,05,27,15,31,25.00
2017,05,27,15,32,24.90
2017,05,27,15,33,24.90
2017,05,27,15,34,25.00
2017,05,27,15,35,25.10
2017,05,27,15,36,25.10
2017,05,27,15,37,25.30
2017,05,27,15,38,25.50
2017,05,27,15,39,25.70
2017,05,27,15,40,25.70
2017,05,27,15,41,25.80
2017,05,27,15,42,25.70
2017,05,27,15,43,25.70
2017,05,27,15,44,25.80
2017,05,27,15,45,25.80
2017,05,27,15,46,25.90
2017,05,27,15,47,26.00
2017,05,27,15,48,26.00
2017,05,27,15,49,25.90
2017,05,27,15,50,26.00
2017,05,27,15,51,26.00
2017,05,27,15,52,26.00
2017,05,27,15,53,25.90
2017,05,27,15,54,25.80
2017,05,27,15,55,25.70
2017,05,27,15,56,25.70
2017,05,27,15,57,25.70
2017,05,27,15,58,25.80
2017,05,27,15,59,26.00
2017,05,27,16,00,26.10
2017,05,27,16,01,26.10
2017,05,27,16,02,26.10
2017,05,27,16,03,26.10
2017,05,27,16,04,26.20
2017,05,27,16,05,26.10
2017,05,27,16,06,26.10
2017,05,27,16,07,26.20
2017,05,27,16,08,26.20
2017,05,27,16,09,26.20
2017,05,27,16,10,26.30
2017,05,27,16,11,26.50
2017,05,27,16,12,26.70
2017,05,27,16,13,26.80
2017,05,27,16,14,26.80
2017,05,27,16,15,26.70
2017,05,27,16,16,26.50
2017,05,27,16,17,26.30
2017,05,27,16,18,26.30
2017,05,27,16,19,26.30
2017,05,27,16,20,26.50
2017,05,27,16,21,26.60
2017,05,27,16,22,26.50
2017,05,27,16,23,26.40
2017,05,27,16,24,26.30
2017,05,27,16,25,26.30
2017,05,27,16,26,26.30
2017,05,27,16,27,26.40
2017,05,27,16,28,26.40
2017,05,27,16,29,26.30
2017,05,27,16,30,26.30
2017,05,27,16,31,26.20
2017,05,27,16,32,26.20
2017,05,27,16,33,26.20
2017,05,27,16,34,26.20
2017,05,27,16,35,26.10
2017,05,27,16,36,26.10
2017,05,27,16,37,26.10
2017,05,27,16,38,25.90
2017,05,27,16,39,25.80
2017,05,27,16,40,25.80
2017,05,27,16,41,25.80
2017,05,27,16,42,26.00
2017,05,27,16,43,26.10
2017,05,27,16,44,26.10
2017,05,27,16,45,26.20
2017,05,27,16,46,26.20
2017,05,27,16,47,26.20
2017,05,27,16,48,26.20
2017,05,27,16,49,26.30
2017,05,27,16,50,26.20
2017,05,27,16,51,26.20
2017,05,27,16,52,26.30
2017,05,27,16,53,26.30
2017,05,27,16,54,26.20
2017,05,27,16,55,26.20
2017,05,27,16,56,26.30
2017,05,27,16,57,26.30
2017,05,27,16,58,26.30
2017,05,27,16,59,26.30
2017,05,27,17,00,26.40
2017,05,27,17,01,26.40
2017,05,27,17,02,26.40
2017,05,27,17,03,26.40
2017,05,27,17,04,26.40
2017,05,27,17,05,26.40
2017,05,27,17,06,26.30
2017,05,27,17,07,26.30
2017,05,27,17,08,26.30
2017,05,27,17,09,26.20
2017,05,27,17,10,26.20
2017,05,27,17,11,26.30
2017,05,27,17,12,26.40
2017,05,27,17,13,26.40
2017,05,27,17,14,26.50
2017,05,27,17,15,26.50
2017,05,27,17,16,26.50
2017,05,27,17,17,26.50
2017,05,27,17,18,26.60
2017,05,27,17,19,26.70